Temp
-17 -18 -18 -18 -18 -18 -18 -18 -18 -18 -18 -18 -18 -18 -18 -18 -18 -18 -19 -19 -18 -18 -18 -18 -18 -18 -18 -17 -17 -16 -16 -16 -15 -15 -15 -15 -14 -14 -14 -14 -14 -14 -14 -14 -14 -14 -14 -14 -14 -14 -14 -14 -14 -14 -14 -14 -14 -15 -15 -15 -14 -14
-18 -18 -18 -18 -19 -19 -19 -19 -18 -18 -19 -19 -19 -19 -19 -19 -19 -19 -19 -19 -19 -19 -18 -18 -18 -18 -18 -18 -18 -18 -17 -17 -17 -17 -16 -16 -16 -16 -15 -15 -15 -14 -14 -14 -15 -15 -15 -14 -14 -14 -14 -14 -14 -14 -14 -15 -15 -15 -15 -15 -15 -15
-19 -19 -19 -19 -19 -19 -19 -19 -19 -19 -19 -19 -19 -19 -19 -19 -19 -19 -19 -20 -19 -19 -19 -19 -19 -19 -18 -19 -19 -19 -18 -18 -18 -18 -18 -18 -17 -17 -16 -16 -16 -15 -15 -15 -15 -15 -15 -15 -15 -15 -15 -15 -15 -15 -15 -15 -15 -15 -15 -15 -15 -15
-19 -19 -19 -19 -20 -20 -20 -20 -20 -20 -20 -20 -20 -20 -20 -20 -20 -19 -19 -20 -20 -20 -20 -19 -19 -19 -19 -19 -19 -20 -20 -19 -19 -19 -18 -18 -18 -18 -17 -17 -17 -16 -16 -16 -15 -15 -16 -16 -16 -16 -16 -16 -16 -16 -16 -16 -15 -15 -15 -15 -15 -16
-20 -20 -20 -20 -20 -20 -20 -20 -20 -20 -20 -20 -20 -20 -20 -20 -20 -20 -20 -20 -20 -20 -20 -20 -20 -20 -19 -19 -19 -20 -20 -20 -20 -19 -19 -19 -19 -18 -18 -18 -17 -17 -17 -17 -16 -16 -16 -16 -17 -17 -17 -17 -17 -17 -17 -17 -16 -16 -16 -16 -15 -16
-20 -20 -20 -20 -20 -20 -20 -21 -21 -21 -21 -20 -20 -21 -21 -20 -20 -20 -20 -20 -20 -20 -20 -20 -20 -20 -20 -20 -20 -20 -20 -20 -20 -20 -20 -19 -19 -18 -18 -18 -18 -18 -18 -18 -17 -17 -17 -17 -17 -17 -17 -17 -18 -18 -18 -18 -17 -17 -16 -16 -16 -16
-21 -21 -21 -21 -21 -21 -21 -21 -21 -21 -21 -21 -21 -21 -21 -21 -21 -21 -21 -21 -21 -20 -20 -20 -20 -20 -20 -20 -20 -20 -20 -20 -20 -20 -20 -20 -19 -19 -18 -18 -18 -18 -18 -18 -18 -18 -18 -18 -18 -18 -18 -18 -18 -18 -18 -18 -18 -18 -17 -17 -16 -16
-21 -21 -21 -21 -21 -21 -21 -21 -21 -21 -21 -21 -21 -21 -21 -21 -21 -21 -21 -21 -21 -21 -21 -21 -21 -21 -21 -20 -20 -20 -20 -20 -20 -20 -20 -20 -20 -19 -19 -19 -19 -19 -19 -19 -19 -19 -19 -19 -18 -18 -18 -18 -18 -19 -19 -18 -18 -18 -18 -17 -17 -17
-22 -22 -21 -21 -22 -22 -22 -21 -21 -21 -21 -21 -21 -21 -21 -21 -21 -21 -21 -22 -22 -21 -21 -21 -21 -21 -21 -21 -21 -21 -21 -21 -21 -21 -21 -21 -20 -20 -20 -19 -19 -19 -19 -19 -19 -19 -19 -19 -19 -19 -19 -19 -19 -19 -19 -19 -19 -18 -18 -18 -17 -17
-22 -22 -22 -22 -22 -22 -22 -22 -22 -22 -22 -22 -22 -21 -22 -22 -22 -22 -22 -22 -22 -22 -22 -22 -22 -22 -22 -21 -21 -21 -21 -21 -21 -21 -21 -21 -21 -21 -20 -20 -20 -20 -20 -20 -20 -20 -20 -19 -19 -19 -19 -19 -19 -19 -19 -19 -19 -19 -18 -18 -18 -18
-23 -23 -22 -22 -22 -22 -22 -22 -22 -22 -22 -22 -22 -22 -22 -22 -22 -22 -22 -23 -23 -23 -23 -23 -23 -22 -22 -22 -22 -22 -22 -22 -22 -22 -22 -22 -22 -22 -22 -21 -21 -20 -20 -20 -20 -20 -20 -20 -20 -20 -20 -20 -19 -19 -19 -19 -19 -19 -19 -18 -18 -18
-23 -23 -23 -23 -23 -23 -23 -23 -23 -23 -23 -23 -23 -23 -23 -23 -23 -23 -23 -23 -23 -23 -23 -23 -23 -23 -23 -23 -23 -23 -23 -23 -23 -23 -22 -22 -22 -22 -22 -22 -22 -22 -21 -20 -20 -20 -21 -21 -20 -20 -20 -20 -20 -20 -20 -19 -19 -19 -19 -19 -18 -18
-24 -24 -24 -24 -24 -24 -24 -24 -24 -24 -24 -24 -24 -24 -24 -24 -24 -24 -24 -24 -24 -24 -24 -24 -24 -24 -24 -24 -24 -24 -24 -24 -24 -24 -23 -23 -23 -23 -23 -22 -22 -22 -22 -22 -21 -21 -21 -21 -21 -21 -21 -20 -20 -20 -20 -20 -20 -19 -19 -19 -19 -18
-25 -25 -25 -25 -25 -25 -25 -25 -25 -25 -25 -24 -24 -24 -24 -24 -24 -24 -24 -24 -24 -24 -24 -24 -24 -24 -24 -24 -24 -24 -24 -24 -24 -24 -24 -24 -24 -24 -23 -23 -23 -22 -22 -22 -22 -21 -21 -21 -21 -21 -21 -21 -21 -20 -20 -20 -20 -20 -20 -19 -19 -19
-26 -26 -26 -26 -26 -26 -25 -25 -25 -25 -25 -25 -25 -25 -25 -25 -25 -25 -25 -25 -24 -24 -24 -24 -24 -24 -24 -24 -24 -24 -24 -24 -24 -24 -24 -24 -24 -24 -24 -24 -23 -23 -23 -22 -22 -22 -22 -21 -21 -21 -21 -21 -21 -21 -21 -20 -20 -20 -20 -20 -19 -19
-27 -27 -27 -27 -26 -26 -26 -26 -26 -26 -26 -26 -26 -26 -25 -25 -25 -25 -25 -25 -25 -25 -25 -25 -25 -24 -24 -24 -24 -24 -24 -24 -24 -24 -23 -23 -23 -23 -23 -23 -23 -23 -23 -23 -23 -22 -22 -21 -21 -22 -22 -22 -22 -21 -21 -21 -21 -20 -20 -20 -20 -20
-28 -28 -28 -27 -27 -27 -27 -27 -27 -27 -27 -27 -27 -26 -26 -26 -26 -26 -26 -26 -26 -26 -26 -25 -25 -25 -25 -25 -25 -25 -25 -25 -24 -24 -24 -24 -23 -23 -23 -23 -23 -23 -23 -23 -23 -23 -22 -22 -22 -22 -22 -22 -22 -22 -22 -21 -21 -21 -21 -20 -20 -20
-28 -28 -28 -28 -28 -28 -28 -28 -28 -28 -27 -27 -27 -27 -27 -27 -27 -27 -27 -27 -27 -27 -27 -26 -26 -26 -26 -26 -26 -26 -26 -26 -25 -25 -25 -25 -24 -24 -23 -23 -23 -23 -23 -23 -23 -23 -23 -23 -22 -22 -22 -22 -22 -22 -22 -21 -21 -21 -21 -21 -21 -21
-29 -29 -29 -29 -29 -29 -29 -29 -29 -28 -28 -28 -28 -28 -28 -28 -28 -28 -28 -28 -28 -28 -28 -28 -28 -27 -27 -27 -27 -27 -27 -27 -26 -26 -26 -26 -25 -25 -24 -24 -24 -23 -23 -23 -23 -23 -23 -23 -23 -23 -23 -22 -22 -22 -22 -22 -21 -21 -21 -21 -21 -21
-30 -30 -30 -30 -30 -30 -30 -30 -30 -29 -29 -29 -29 -29 -29 -29 -29 -29 -29 -29 -29 -29 -29 -29 -29 -28 -28 -28 -28 -28 -28 -28 -27 -27 -27 -27 -26 -26 -25 -25 -25 -24 -24 -23 -23 -23 -23 -23 -23 -23 -23 -23 -23 -23 -22 -22 -22 -21 -21 -21 -21 -21
-31 -30 -30 -30 -30 -30 -30 -30 -30 -30 -30 -30 -30 -30 -30 -30 -30 -30 -30 -30 -29 -29 -29 -29 -29 -29 -29 -29 -29 -29 -29 -28 -28 -28 -28 -28 -28 -27 -27 -26 -26 -25 -25 -25 -24 -24 -24 -23 -23 -24 -24 -24 -24 -23 -23 -22 -22 -22 -21 -21 -22 -22
-31 -31 -31 -31 -31 -31 -31 -31 -30 -30 -30 -30 -30 -30 -30 -30 -30 -30 -30 -30 -30 -30 -30 -30 -30 -29 -29 -29 -29 -29 -29 -29 -29 -28 -28 -28 -28 -28 -28 -27 -27 -27 -26 -26 -26 -25 -25 -24 -24 -24 -25 -25 -25 -24 -24 -23 -23 -22 -22 -22 -22 -22
-31 -31 -31 -31 -31 -31 -31 -31 -31 -30 -30 -30 -30 -30 -30 -30 -30 -30 -30 -30 -30 -30 -30 -29 -29 -29 -29 -29 -29 -29 -28 -28 -28 -28 -28 -28 -28 -28 -28 -28 -28 -27 -27 -27 -27 -27 -26 -26 -25 -25 -25 -26 -26 -25 -25 -25 -24 -23 -22 -22 -22 -22
-31 -31 -31 -31 -31 -31 -31 -31 -31 -31 -31 -31 -31 -30 -30 -30 -30 -30 -30 -30 -30 -29 -29 -29 -29 -29 -29 -29 -28 -28 -28 -28 -28 -28 -28 -28 -28 -27 -27 -27 -27 -27 -27 -27 -27 -27 -27 -27 -26 -26 -26 -26 -26 -26 -26 -26 -25 -24 -24 -23 -22 -22
-31 -31 -31 -31 -31 -31 -31 -31 -31 -31 -31 -31 -31 -31 -31 -31 -30 -30 -30 -30 -29 -29 -29 -29 -29 -29 -29 -29 -28 -28 -28 -28 -28 -28 -28 -28 -27 -27 -27 -27 -27 -27 -27 -27 -27 -27 -27 -27 -27 -27 -26 -26 -26 -27 -27 -27 -26 -26 -25 -24 -23 -22
-31 -31 -32 -32 -32 -32 -32 -32 -32 -32 -32 -32 -32 -32 -31 -31 -31 -30 -30 -30 -30 -29 -29 -29 -29 -29 -29 -29 -29 -29 -28 -28 -28 -28 -28 -28 -28 -27 -27 -27 -27 -27 -27 -27 -27 -27 -27 -27 -27 -27 -27 -26 -27 -27 -27 -27 -27 -27 -26 -25 -24 -23
-32 -32 -32 -32 -33 -33 -33 -33 -33 -33 -33 -33 -33 -32 -32 -31 -31 -30 -30 -30 -30 -30 -30 -30 -30 -30 -30 -29 -29 -29 -29 -29 -29 -29 -28 -28 -28 -28 -28 -28 -28 -28 -27 -27 -27 -27 -27 -27 -27 -27 -27 -27 -27 -27 -27 -27 -27 -27 -27 -27 -26 -24
-33 -33 -33 -33 -34 -34 -34 -34 -34 -34 -34 -34 -33 -33 -32 -32 -31 -31 -31 -31 -31 -30 -30 -30 -30 -30 -30 -30 -30 -30 -29 -29 -29 -29 -29 -29 -29 -29 -29 -28 -28 -28 -28 -28 -27 -27 -27 -27 -27 -27 -27 -27 -27 -27 -27 -27 -27 -27 -27 -27 -27 -26
-33 -33 -34 -34 -34 -34 -34 -34 -35 -35 -34 -34 -33 -33 -32 -32 -32 -31 -31 -31 -31 -31 -30 -30 -30 -30 -30 -29 -29 -29 -29 -29 -29 -29 -29 -29 -29 -29 -29 -29 -29 -29 -29 -29 -28 -28 -28 -28 -28 -27 -27 -27 -27 -27 -27 -27 -27 -27 -27 -27 -27 -27
-34 -34 -35 -35 -35 -35 -35 -35 -35 -35 -35 -34 -33 -33 -33 -32 -32 -32 -31 -31 -31 -30 -30 -30 -30 -29 -29 -29 -29 -29 -29 -29 -29 -29 -29 -29 -29 -29 -29 -29 -29 -29 -29 -29 -29 -29 -29 -28 -28 -28 -28 -28 -28 -28 -27 -27 -27 -27 -27 -27 -27 -27
-35 -35 -35 -35 -35 -35 -35 -35 -35 -35 -34 -34 -33 -33 -33 -33 -32 -32 -31 -31 -30 -30 -30 -29 -29 -29 -29 -29 -29 -29 -30 -30 -30 -30 -30 -29 -29 -29 -29 -29 -29 -29 -29 -29 -29 -29 -29 -29 -29 -29 -29 -29 -29 -28 -28 -28 -28 -27 -27 -28 -28 -27
-36 -36 -36 -36 -35 -35 -35 -35 -35 -35 -34 -34 -34 -33 -33 -32 -32 -31 -30 -30 -30 -30 -29 -29 -29 -29 -29 -29 -30 -30 -30 -30 -30 -30 -30 -30 -30 -30 -30 -30 -30 -30 -30 -29 -29 -30 -30 -29 -29 -30 -30 -30 -29 -29 -29 -28 -28 -28 -28 -28 -28 -28
-36 -36 -36 -36 -36 -36 -35 -35 -35 -34 -34 -34 -34 -33 -33 -32 -31 -30 -30 -30 -30 -29 -29 -29 -29 -29 -30 -30 -30 -30 -30 -30 -30 -30 -30 -30 -30 -30 -30 -30 -30 -30 -30 -29 -29 -30 -30 -30 -30 -30 -31 -30 -30 -30 -30 -29 -29 -29 -28 -28 -28 -28
-36 -36 -36 -36 -36 -36 -35 -35 -35 -34 -34 -34 -33 -33 -32 -32 -31 -30 -30 -30 -30 -29 -29 -29 -30 -30 -30 -30 -30 -30 -30 -30 -30 -30 -30 -30 -30 -30 -30 -30 -30 -30 -30 -30 -30 -30 -30 -30 -30 -31 -31 -31 -31 -31 -31 -30 -30 -30 -29 -29 -29 -29
-36 -36 -36 -36 -36 -35 -35 -35 -34 -34 -34 -34 -33 -33 -32 -32 -31 -30 -30 -30 -29 -29 -29 -30 -30 -30 -31 -31 -30 -30 -30 -30 -30 -30 -30 -30 -30 -30 -30 -30 -30 -30 -30 -30 -30 -30 -30 -30 -31 -31 -31 -31 -31 -31 -31 -31 -31 -30 -30 -30 -30 -29
-36 -36 -36 -36 -36 -35 -35 -35 -34 -34 -34 -34 -33 -33 -32 -31 -31 -30 -30 -30 -29 -29 -30 -30 -30 -31 -31 -31 -31 -31 -31 -31 -31 -31 -31 -31 -31 -31 -31 -31 -31 -30 -30 -30 -30 -30 -30 -31 -31 -31 -32 -32 -32 -32 -32 -32 -31 -31 -31 -30 -30 -29
-36 -36 -36 -36 -35 -35 -35 -35 -34 -34 -34 -34 -33 -33 -32 -31 -31 -30 -30 -30 -30 -30 -30 -30 -31 -31 -31 -31 -31 -31 -31 -31 -31 -31 -31 -31 -31 -31 -31 -32 -32 -32 -31 -31 -31 -31 -31 -31 -31 -32 -32 -32 -32 -32 -32 -32 -32 -31 -31 -31 -30 -29
-36 -36 -36 -36 -35 -35 -35 -35 -35 -34 -34 -34 -33 -33 -32 -31 -31 -30 -30 -30 -30 -30 -30 -30 -31 -31 -31 -31 -31 -32 -32 -32 -32 -32 -32 -32 -32 -32 -32 -32 -32 -32 -32 -32 -32 -32 -32 -32 -32 -32 -32 -33 -33 -33 -33 -32 -32 -32 -32 -31 -31 -30
Height
5652 5651 5650 5649 5648 5647 5646 5645 5643 5643 5643 5643 5642 5641 5641 5640 5640 5641 5640 5641 5641 5641 5641 5641 5641 5641 5641 5641 5641 5641 5641 5641 5640 5640 5638 5638 5637 5637 5636 5636 5635 5635 5636 5636 5636 5637 5637 5637 5637 5638 5638 5639 5640 5641 5641 5642 5642 5642 5645 5646 5646 5648
5643 5642 5641 5639 5637 5636 5635 5634 5633 5632 5632 5632 5632 5632 5631 5631 5630 5631 5630 5631 5631 5631 5631 5630 5630 5630 5630 5630 5629 5630 5630 5630 5630 5629 5628 5628 5627 5627 5626 5626 5625 5625 5625 5625 5625 5625 5626 5626 5627 5627 5627 5628 5629 5630 5631 5631 5631 5632 5635 5635 5637 5638
5634 5632 5631 5630 5628 5626 5624 5623 5623 5622 5622 5621 5620 5620 5621 5620 5620 5620 5620 5620 5620 5620 5620 5620 5619 5619 5619 5618 5617 5617 5618 5619 5619 5618 5617 5617 5617 5616 5616 5615 5615 5615 5614 5614 5614 5614 5614 5615 5615 5616 5616 5617 5618 5619 5620 5620 5620 5622 5624 5624 5626 5628
5623 5622 5621 5620 5619 5617 5616 5615 5614 5613 5612 5612 5610 5610 5609 5609 5609 5609 5609 5609 5609 5609 5609 5608 5608 5608 5607 5607 5606 5605 5606 5606 5607 5607 5606 5606 5605 5605 5605 5605 5604 5604 5604 5604 5603 5603 5603 5603 5604 5604 5604 5606 5607 5608 5608 5609 5610 5611 5613 5613 5615 5617
5614 5612 5611 5609 5608 5607 5606 5605 5604 5604 5603 5602 5602 5600 5599 5599 5599 5598 5598 5598 5598 5597 5597 5597 5596 5596 5595 5594 5594 5594 5594 5594 5595 5595 5595 5595 5594 5594 5593 5593 5593 5593 5593 5593 5593 5593 5593 5593 5593 5593 5594 5594 5595 5596 5597 5598 5599 5601 5602 5603 5605 5607
5604 5602 5600 5598 5597 5596 5594 5594 5593 5592 5592 5592 5591 5590 5589 5589 5588 5587 5587 5586 5586 5586 5586 5585 5584 5584 5583 5582 5581 5581 5581 5582 5582 5583 5584 5584 5583 5583 5582 5581 5581 5581 5581 5582 5582 5582 5582 5582 5583 5583 5583 5584 5584 5585 5586 5587 5589 5591 5592 5593 5594 5595
5594 5592 5590 5588 5586 5585 5584 5583 5582 5581 5580 5580 5579 5579 5578 5577 5577 5576 5575 5575 5574 5574 5574 5573 5573 5572 5571 5570 5569 5568 5568 5568 5569 5570 5571 5572 5571 5571 5571 5570 5570 5569 5570 5570 5570 5570 5570 5571 5572 5572 5572 5573 5573 5574 5575 5577 5578 5580 5581 5583 5584 5584
5583 5581 5580 5578 5576 5575 5573 5572 5571 5570 5568 5568 5567 5566 5565 5564 5563 5562 5562 5562 5561 5561 5561 5561 5560 5560 5559 5558 5557 5556 5555 5554 5555 5556 5557 5559 5559 5559 5559 5558 5557 5557 5558 5558 5558 5558 5558 5559 5559 5560 5561 5561 5562 5562 5564 5566 5567 5569 5570 5572 5573 5574
5573 5571 5570 5568 5566 5565 5563 5561 5559 5558 5556 5555 5554 5553 5552 5550 5549 5548 5547 5547 5547 5547 5547 5547 5547 5546 5546 5546 5545 5545 5544 5543 5542 5542 5542 5544 5545 5546 5547 5546 5545 5545 5545 5546 5546 5547 5547 5547 5548 5548 5549 5549 5550 5550 5552 5554 5556 5558 5560 5561 5562 5563
5562 5561 5559 5557 5556 5554 5552 5550 5547 5546 5544 5542 5540 5539 5538 5537 5536 5535 5534 5533 5533 5532 5533 5533 5533 5533 5532 5532 5531 5531 5531 5531 5530 5530 5529 5529 5529 5531 5532 5533 5534 5533 5533 5533 5533 5534 5535 5536 5536 5536 5536 5537 5538 5538 5540 5542 5544 5546 5549 5551 5552 5553
5552 5550 5548 5546 5544 5542 5540 5538 5535 5533 5531 5529 5528 5526 5525 5524 5523 5522 5521 5520 5519 5518 5517 5517 5518 5518 5518 5517 5517 5517 5516 5516 5516 5516 5516 5516 5516 5516 5517 5518 5519 5520 5520 5520 5520 5521 5522 5523 5524 5524 5524 5525 5526 5526 5528 5529 5531 5534 5537 5540 5542 5543
5541 5539 5537 5534 5532 5529 5527 5526 5524 5522 5520 5518 5516 5514 5513 5512 5511 5510 5508 5507 5506 5504 5503 5503 5503 5503 5503 5503 5503 5502 5502 5501 5501 5501 5501 5501 5501 5502 5503 5503 5504 5504 5505 5507 5507 5508 5508 5510 5510 5511 5511 5512 5513 5514 5516 5518 5519 5522 5525 5529 5531 5533
5529 5527 5525 5523 5520 5518 5515 5513 5512 5511 5509 5507 5505 5503 5501 5499 5497 5496 5495 5494 5492 5491 5490 5490 5490 5490 5489 5488 5488 5487 5487 5486 5486 5487 5486 5486 5486 5486 5488 5489 5490 5490 5491 5492 5493 5494 5494 5496 5497 5497 5497 5498 5499 5500 5502 5505 5508 5510 5513 5517 5520 5522
5516 5514 5512 5511 5509 5506 5504 5501 5500 5498 5497 5495 5494 5492 5490 5488 5485 5484 5482 5480 5478 5477 5476 5475 5475 5476 5475 5474 5473 5472 5472 5471 5470 5471 5471 5471 5471 5470 5471 5473 5474 5475 5476 5477 5479 5480 5481 5481 5482 5482 5483 5484 5484 5486 5487 5491 5494 5497 5500 5504 5507 5510
5504 5502 5500 5499 5497 5494 5492 5489 5487 5485 5484 5482 5481 5480 5478 5475 5473 5471 5469 5467 5465 5463 5461 5460 5460 5460 5460 5458 5456 5455 5455 5454 5454 5453 5453 5453 5454 5454 5455 5456 5457 5459 5460 5461 5463 5465 5467 5469 5468 5467 5467 5469 5470 5471 5472 5476 5480 5483 5486 5490 5494 5497
5491 5490 5488 5487 5485 5482 5479 5477 5475 5473 5471 5470 5468 5467 5465 5462 5460 5458 5455 5454 5452 5450 5448 5446 5444 5444 5443 5442 5440 5438 5438 5437 5436 5435 5434 5434 5435 5436 5437 5439 5440 5442 5443 5444 5445 5448 5451 5454 5456 5454 5453 5453 5455 5455 5457 5461 5465 5468 5471 5475 5479 5482
5479 5478 5477 5475 5472 5470 5467 5465 5463 5461 5460 5458 5455 5453 5451 5448 5446 5444 5441 5440 5439 5437 5434 5432 5430 5428 5427 5426 5423 5421 5421 5419 5418 5417 5416 5415 5417 5417 5417 5419 5420 5422 5425 5427 5428 5429 5433 5438 5440 5439 5439 5439 5440 5440 5441 5444 5449 5453 5456 5461 5464 5467
5467 5467 5466 5463 5461 5457 5454 5452 5451 5449 5448 5446 5442 5440 5438 5434 5432 5430 5428 5426 5424 5422 5419 5417 5414 5412 5411 5409 5406 5405 5404 5402 5401 5401 5399 5397 5398 5399 5399 5399 5400 5402 5404 5407 5409 5410 5415 5421 5423 5423 5423 5424 5425 5425 5425 5427 5431 5436 5441 5446 5450 5452
5457 5456 5454 5452 5449 5445 5442 5440 5439 5437 5435 5433 5430 5427 5424 5421 5419 5417 5414 5412 5410 5407 5404 5402 5398 5395 5394 5393 5390 5388 5387 5386 5384 5384 5382 5379 5379 5381 5382 5381 5381 5382 5384 5386 5389 5391 5395 5401 5406 5406 5406 5408 5408 5408 5409 5411 5414 5418 5424 5430 5434 5437
5446 5445 5442 5440 5438 5434 5430 5429 5428 5425 5423 5421 5418 5414 5412 5409 5407 5404 5401 5399 5396 5393 5390 5387 5383 5380 5378 5378 5376 5373 5371 5369 5368 5368 5366 5362 5361 5363 5364 5363 5363 5364 5365 5365 5368 5371 5373 5380 5387 5390 5389 5390 5391 5390 5390 5394 5397 5401 5407 5413 5418 5421
5435 5434 5432 5430 5427 5423 5420 5418 5417 5414 5411 5409 5406 5403 5400 5398 5395 5392 5389 5386 5383 5380 5377 5373 5369 5366 5363 5362 5362 5360 5356 5354 5352 5351 5349 5346 5343 5344 5345 5345 5344 5345 5347 5347 5348 5350 5351 5356 5365 5371 5371 5372 5373 5372 5371 5373 5378 5384 5391 5396 5400 5404
5426 5425 5423 5419 5416 5413 5411 5408 5406 5404 5401 5398 5395 5392 5389 5385 5383 5380 5376 5373 5370 5367 5364 5360 5355 5352 5349 5347 5346 5344 5342 5339 5337 5335 5333 5330 5327 5326 5327 5328 5327 5326 5329 5331 5331 5331 5332 5334 5341 5349 5353 5353 5354 5354 5353 5353 5356 5365 5373 5378 5381 5386
5418 5415 5413 5408 5405 5403 5401 5398 5396 5393 5390 5386 5383 5379 5376 5373 5370 5367 5363 5360 5357 5354 5351 5347 5342 5339 5335 5332 5329 5326 5326 5324 5321 5319 5317 5314 5311 5310 5310 5311 5311 5309 5310 5314 5314 5314 5316 5317 5320 5326 5333 5335 5336 5336 5336 5335 5337 5345 5352 5358 5363 5368
5409 5406 5402 5398 5394 5392 5390 5387 5385 5382 5378 5374 5370 5367 5363 5360 5356 5353 5350 5348 5345 5342 5338 5334 5329 5324 5320 5316 5312 5308 5307 5307 5304 5301 5299 5295 5293 5293 5294 5294 5294 5292 5292 5295 5297 5297 5299 5301 5303 5306 5312 5317 5319 5319 5319 5317 5320 5326 5331 5335 5343 5352
5399 5396 5393 5388 5384 5382 5379 5376 5373 5370 5366 5362 5358 5353 5350 5346 5342 5339 5337 5334 5331 5328 5324 5319 5315 5310 5304 5300 5296 5291 5289 5289 5286 5282 5280 5277 5274 5274 5275 5276 5277 5274 5274 5277 5279 5280 5283 5285 5286 5288 5292 5297 5301 5302 5303 5302 5303 5308 5311 5314 5323 5334
5389 5387 5383 5378 5374 5372 5368 5364 5361 5358 5355 5350 5345 5340 5336 5333 5329 5326 5323 5320 5316 5312 5308 5304 5299 5295 5289 5285 5280 5275 5273 5272 5268 5264 5262 5259 5256 5255 5255 5258 5258 5255 5255 5258 5260 5263 5266 5268 5269 5271 5273 5277 5281 5284 5287 5288 5289 5292 5294 5297 5304 5315
5379 5377 5374 5370 5365 5362 5359 5354 5350 5347 5344 5338 5333 5328 5324 5320 5317 5313 5310 5305 5301 5297 5292 5288 5284 5280 5275 5270 5266 5261 5259 5256 5252 5249 5246 5243 5240 5238 5237 5239 5239 5237 5237 5239 5241 5244 5249 5251 5251 5253 5256 5260 5263 5266 5270 5273 5275 5277 5278 5280 5286 5295
5369 5367 5365 5362 5357 5352 5350 5345 5340 5336 5332 5327 5321 5316 5312 5308 5304 5301 5297 5292 5287 5283 5278 5274 5271 5267 5263 5259 5254 5250 5247 5243 5239 5236 5233 5229 5226 5224 5222 5221 5222 5221 5220 5221 5223 5226 5229 5232 5233 5235 5239 5244 5246 5248 5253 5257 5259 5261 5262 5263 5268 5277
5361 5358 5356 5353 5349 5344 5341 5337 5332 5326 5320 5315 5310 5305 5301 5296 5291 5287 5284 5279 5274 5270 5266 5261 5258 5256 5252 5249 5245 5240 5236 5232 5228 5224 5221 5217 5213 5211 5209 5208 5207 5207 5205 5205 5206 5208 5211 5214 5216 5219 5223 5227 5230 5231 5234 5237 5239 5243 5246 5247 5252 5261
5352 5350 5348 5345 5341 5337 5333 5328 5323 5316 5309 5304 5299 5295 5291 5286 5280 5275 5271 5267 5263 5259 5255 5251 5247 5245 5242 5239 5235 5230 5226 5221 5217 5213 5210 5205 5201 5198 5197 5196 5195 5195 5193 5192 5192 5193 5195 5198 5202 5204 5206 5209 5211 5213 5215 5218 5222 5227 5231 5234 5238 5245
5345 5343 5340 5337 5333 5329 5325 5320 5314 5307 5300 5295 5290 5285 5281 5277 5271 5266 5261 5257 5253 5249 5245 5241 5238 5234 5231 5228 5225 5220 5215 5211 5206 5202 5199 5195 5190 5187 5185 5184 5184 5183 5181 5180 5181 5181 5182 5185 5190 5191 5190 5191 5193 5196 5198 5201 5206 5211 5215 5220 5224 5228
5338 5335 5332 5329 5325 5321 5316 5311 5304 5297 5291 5287 5281 5276 5271 5267 5262 5258 5253 5248 5244 5240 5236 5232 5229 5225 5221 5218 5214 5210 5207 5202 5196 5190 5187 5185 5181 5178 5175 5174 5173 5172 5169 5169 5171 5171 5170 5174 5178 5178 5176 5176 5178 5180 5183 5187 5192 5195 5200 5205 5209 5210
5331 5328 5325 5322 5317 5313 5308 5302 5295 5289 5284 5280 5274 5269 5263 5258 5253 5249 5245 5240 5235 5232 5228 5225 5221 5217 5212 5208 5204 5200 5197 5193 5188 5182 5177 5173 5171 5169 5166 5164 5163 5161 5159 5158 5160 5161 5161 5164 5166 5166 5165 5164 5164 5166 5169 5173 5177 5180 5184 5189 5192 5192
5325 5322 5319 5315 5310 5305 5300 5294 5288 5283 5279 5274 5268 5262 5256 5250 5245 5241 5237 5233 5229 5225 5222 5218 5213 5208 5204 5199 5195 5191 5187 5183 5180 5176 5171 5165 5162 5159 5157 5154 5152 5151 5149 5149 5149 5151 5152 5153 5154 5154 5154 5153 5153 5155 5157 5160 5163 5166 5169 5173 5175 5176
5318 5315 5311 5308 5303 5298 5293 5287 5282 5278 5273 5268 5262 5256 5250 5244 5238 5234 5230 5226 5223 5220 5216 5211 5206 5201 5196 5192 5188 5184 5179 5175 5171 5168 5165 5160 5155 5151 5148 5145 5143 5141 5141 5140 5140 5140 5142 5143 5143 5143 5143 5143 5143 5145 5146 5148 5151 5153 5156 5158 5158 5162
5310 5307 5304 5300 5296 5291 5286 5282 5277 5272 5268 5263 5256 5250 5244 5238 5232 5228 5224 5221 5218 5214 5210 5205 5200 5195 5191 5187 5182 5177 5172 5167 5162 5159 5156 5153 5149 5145 5140 5136 5133 5131 5131 5131 5131 5131 5132 5133 5133 5133 5133 5134 5135 5136 5137 5137 5139 5141 5144 5145 5146 5152
5303 5300 5297 5293 5289 5285 5281 5277 5272 5268 5263 5257 5251 5245 5238 5232 5227 5223 5219 5216 5212 5209 5205 5200 5195 5190 5186 5182 5177 5172 5166 5160 5155 5150 5146 5143 5140 5137 5134 5130 5126 5123 5122 5122 5122 5122 5122 5123 5123 5123 5124 5125 5126 5127 5127 5127 5128 5132 5135 5136 5138 5145
5297 5294 5290 5287 5283 5279 5276 5272 5268 5264 5259 5253 5247 5240 5233 5226 5221 5217 5214 5211 5208 5204 5200 5195 5190 5186 5181 5177 5172 5166 5160 5153 5147 5143 5138 5135 5131 5128 5126 5123 5120 5117 5115 5114 5114 5114 5114 5114 5115 5115 5115 5116 5117 5118 5118 5118 5121 5125 5127 5128 5132 5138
Wind_Speed
67 66 64 63 63 64 65 66 66 67 67 68 69 69 69 67 65 64 63 64 64 65 66 67 67 69 71 73 73 71 70 70 71 72 73 74 75 77 78 79 79 78 76 75 74 74 74 75 75 76 76 76 75 75 75 74 73 73 72 73 73 74
67 67 67 67 68 68 68 69 70 72 73 73 71 70 69 69 67 65 65 66 67 68 69 70 71 72 73 75 76 75 73 72 72 73 73 74 75 77 78 79 81 81 81 80 79 77 77 76 76 77 77 77 76 76 75 75 74 73 72 72 72 73
66 67 67 68 69 71 72 73 74 76 75 74 72 70 70 70 70 70 69 69 70 71 72 74 75 75 76 76 79 80 77 74 73 73 73 74 75 77 79 80 81 82 83 83 83 82 80 78 77 76 76 76 76 76 75 75 75 74 73 72 71 72
69 70 71 72 73 75 76 76 76 75 74 73 72 71 70 70 70 71 72 72 73 74 76 77 78 78 79 81 82 82 79 75 74 73 72 73 75 77 79 81 82 84 85 85 85 85 83 81 79 77 76 74 73 73 74 75 76 75 74 73 71 71
74 76 77 78 79 79 78 77 76 75 74 74 74 73 73 72 72 72 72 72 73 75 76 78 80 81 83 85 85 84 80 78 76 75 73 74 75 77 79 81 82 84 85 86 87 87 86 83 81 80 78 76 74 72 72 73 74 75 75 75 73 71
78 79 81 82 82 81 80 79 78 76 75 73 72 72 72 73 73 73 72 72 73 74 75 77 79 80 82 84 85 84 83 81 79 77 75 76 78 79 80 82 83 84 85 85 86 86 87 86 84 82 80 78 77 75 73 72 72 73 74 74 74 72
80 81 81 82 82 82 81 79 78 76 75 75 74 75 76 77 77 78 79 80 81 82 82 83 83 84 85 85 86 86 85 84 82 79 77 78 80 81 82 83 84 84 85 86 86 86 86 87 86 85 83 80 78 77 75 73 72 72 73 73 73 73
78 77 76 76 76 76 77 77 78 78 80 81 82 84 86 87 87 87 87 88 89 89 89 88 88 87 88 88 89 89 89 89 88 86 83 82 82 82 83 84 84 84 84 85 86 86 86 86 86 86 85 84 82 79 78 76 75 74 74 74 74 73
76 76 75 76 76 78 81 83 85 87 88 90 91 93 94 94 94 93 93 92 91 90 89 89 89 89 89 89 89 89 89 90 90 90 89 88 87 87 86 86 86 86 85 84 84 84 85 86 86 85 85 85 84 83 81 79 78 77 76 76 76 76
85 85 86 86 87 89 90 92 94 95 95 96 96 97 97 97 96 95 94 93 91 90 89 89 89 90 90 91 92 92 92 92 92 91 90 89 89 89 90 90 91 90 90 89 87 86 85 85 86 86 86 85 84 84 84 82 82 80 79 79 79 79
89 90 91 92 93 93 94 95 96 96 96 97 97 96 96 95 95 94 94 93 92 91 90 89 88 88 88 89 90 91 92 93 94 93 92 90 89 88 88 89 90 91 93 93 92 89 87 86 86 86 87 88 87 86 86 85 85 84 83 82 81 82
87 89 91 92 93 94 95 95 95 95 95 95 95 95 95 95 94 94 93 92 92 91 90 89 88 88 87 87 87 88 89 89 90 91 91 91 91 90 89 88 87 88 89 92 93 91 89 88 88 88 88 88 89 89 89 88 87 87 86 84 84 84
87 89 90 91 92 93 93 93 93 93 93 93 93 94 93 94 93 93 93 93 92 92 92 92 91 91 90 90 90 90 90 90 90 90 90 91 91 91 92 91 90 89 88 88 90 91 90 88 88 89 89 89 90 90 90 90 90 90 88 87 86 85
88 88 89 90 90 91 92 92 92 92 92 92 92 92 92 92 93 93 93 94 94 95 96 96 96 96 96 96 96 96 95 95 95 95 94 94 94 94 93 93 94 93 93 91 90 89 90 89 89 90 90 91 92 92 91 91 90 91 91 91 89 88
86 87 87 88 88 89 90 91 92 93 93 93 93 93 94 94 95 95 96 96 97 98 99 100 100 100 101 101 101 101 101 102 102 101 101 100 100 99 98 97 97 96 96 96 95 93 91 90 90 92 93 94 94 94 94 93 91 91 91 92 92 92
83 84 85 85 86 87 88 89 91 91 92 93 94 94 95 96 96 97 98 98 99 100 101 103 103 104 104 105 105 106 106 106 106 107 107 107 106 105 104 103 102 101 100 99 99 99 97 95 93 94 95 96 97 97 97 96 95 93 92 91 91 93
81 81 82 82 83 84 85 87 88 89 90 91 93 94 95 96 97 97 99 99 100 101 102 103 104 105 105 106 107 108 108 109 109 109 110 111 111 111 111 110 108 107 105 104 103 102 101 101 100 99 99 99 100 101 100 99 98 97 96 94 92 91
77 78 79 80 81 82 84 85 86 87 88 89 90 92 93 94 95 96 97 98 99 100 101 102 103 104 105 106 106 107 108 108 109 110 111 112 112 113 114 114 114 114 112 111 109 107 105 104 105 105 105 104 103 103 103 104 102 100 98 97 95 92
72 73 74 75 76 78 80 81 82 83 84 85 86 88 89 90 92 93 94 95 96 97 98 99 100 102 103 103 104 105 105 106 106 107 108 110 112 112 113 115 116 117 117 117 116 114 112 110 108 108 109 109 108 107 106 105 106 105 102 99 97 96
68 68 69 70 71 73 75 76 77 78 80 81 82 83 85 86 87 89 90 91 92 93 94 95 96 98 98 98 99 100 101 102 102 103 104 105 107 109 110 111 113 115 117 118 118 118 117 115 112 109 108 109 111 111 110 108 107 107 106 103 100 98
66 66 67 68 69 70 72 73 73 75 76 77 78 79 80 82 83 84 85 87 88 89 90 91 93 94 95 95 95 95 97 98 98 99 99 101 102 103 104 105 107 109 110 112 114 115 116 115 112 108 105 105 107 110 112 112 110 108 107 107 105 102
65 65 66 67 68 69 70 71 72 73 74 76 77 78 80 81 82 83 84 85 86 87 88 90 91 92 92 93 93 92 92 94 95 95 96 97 98 99 99 99 100 102 103 104 105 107 109 110 108 104 101 100 102 105 109 112 113 111 108 108 108 106
64 65 66 67 69 69 71 72 73 74 75 76 78 79 80 81 82 83 84 85 86 86 87 88 89 90 91 92 92 92 92 92 93 94 95 96 97 97 97 96 97 98 99 99 99 100 101 102 103 101 97 95 96 99 102 107 111 112 111 109 108 108
64 65 66 68 69 70 71 72 73 74 76 77 78 80 81 82 83 84 85 85 86 86 87 88 89 90 91 92 92 93 92 92 92 93 94 95 96 95 95 95 95 96 97 96 96 97 97 97 97 97 96 93 91 93 96 100 104 108 110 111 110 108
64 65 66 68 69 70 72 73 74 75 76 78 79 81 82 84 85 86 86 86 87 87 87 88 88 89 90 91 91 92 92 91 91 92 93 94 95 94 94 93 94 95 95 95 95 95 95 95 95 95 94 93 91 90 91 94 98 101 105 109 110 109
64 64 66 67 69 70 71 72 74 75 76 77 79 81 83 84 85 86 86 86 86 86 86 86 86 86 87 88 88 89 89 88 89 90 90 91 92 92 92 92 92 93 94 94 94 94 93 93 93 93 93 92 91 90 89 90 92 95 98 103 107 109
64 64 65 66 67 68 69 70 72 73 75 77 79 81 83 84 85 85 85 84 84 84 83 83 82 82 81 81 81 80 80 79 80 80 81 82 83 84 85 85 86 88 90 90 91 91 91 91 92 92 92 91 91 90 89 88 89 91 94 97 101 105
63 64 64 64 64 65 66 68 70 72 74 76 78 81 82 83 83 82 82 82 81 80 79 77 74 73 72 70 70 70 70 70 71 72 72 73 73 74 74 75 76 78 80 82 84 85 86 87 89 90 90 90 90 90 89 88 88 89 91 93 95 98
61 62 61 61 62 64 65 67 69 72 75 77 79 80 81 81 81 80 79 77 76 73 70 68 66 64 63 63 64 66 66 67 69 69 70 71 71 70 69 69 68 69 70 72 74 76 78 80 82 84 85 86 87 88 89 88 88 88 89 91 92 93
59 58 58 59 61 63 65 67 69 72 75 77 78 79 78 77 77 76 73 71 68 65 64 63 62 61 60 60 61 63 64 65 66 67 68 69 70 70 70 68 66 65 65 65 66 68 70 72 74 76 78 79 81 84 86 87 87 87 87 88 89 90
55 56 57 59 61 63 65 67 70 72 74 75 75 75 73 72 71 69 67 65 63 62 62 61 59 58 58 58 58 60 62 63 65 65 65 65 66 67 68 67 66 65 64 63 62 62 63 64 65 67 70 73 76 78 81 83 84 84 85 85 86 88
53 55 57 59 61 64 65 67 69 71 71 70 69 69 68 67 66 64 62 61 60 59 58 56 54 55 56 57 58 59 60 61 63 64 63 63 63 63 64 64 64 64 63 61 59 59 59 57 57 59 63 67 70 72 74 76 78 80 81 81 83 86
53 55 57 60 62 63 64 65 66 65 64 63 64 65 65 65 64 61 59 57 55 52 50 50 51 54 56 57 58 59 58 58 59 60 60 60 60 60 60 61 61 61 62 61 58 57 56 54 53 55 57 60 63 66 68 69 71 74 76 77 79 83
53 56 58 60 61 62 62 61 59 58 58 59 60 61 62 63 62 58 54 51 48 46 46 49 52 53 54 55 55 54 54 53 52 51 52 54 54 55 55 56 56 56 57 57 56 54 53 51 51 53 54 56 58 60 62 63 65 68 71 73 75 80
55 57 58 59 59 58 56 53 52 53 53 54 56 57 59 60 58 53 47 43 41 43 46 48 49 50 50 50 50 50 50 50 50 49 49 50 51 52 53 53 54 53 53 53 53 52 50 49 49 50 51 53 54 55 57 59 60 63 66 68 72 76
56 58 58 57 55 52 49 47 47 47 47 48 50 53 55 55 52 46 41 39 39 42 45 46 46 46 47 47 48 49 51 52 52 51 50 49 49 50 51 51 52 52 52 50 50 49 48 46 46 47 49 50 51 52 53 55 57 58 61 64 68 71
57 57 56 54 50 45 42 41 41 40 41 43 46 48 50 49 46 41 37 37 38 41 43 44 45 45 45 46 48 50 52 52 52 50 49 47 46 45 45 45 46 47 47 46 45 45 45 44 44 45 46 47 48 49 50 52 53 54 56 60 63 65
57 55 53 49 43 39 36 36 36 36 37 39 42 44 46 45 42 38 36 36 37 39 41 43 44 44 44 45 48 51 52 51 49 47 45 44 43 42 41 41 41 41 42 41 40 40 41 42 42 43 44 45 46 46 47 48 49 49 51 54 56 58
Wind_Direction
278 277 276 273 270 269 269 270 271 273 274 275 275 275 274 273 271 269 266 264 261 260 260 260 260 258 258 261 264 265 265 264 263 263 262 262 262 262 263 264 265 265 264 263 262 261 260 259 258 258 258 259 259 259 259 259 260 260 261 262 262 262
275 274 273 271 271 270 270 271 272 274 275 276 274 273 271 270 270 268 265 263 261 260 258 258 259 259 258 259 261 264 266 265 263 262 261 261 262 262 263 263 263 264 264 265 264 263 261 259 259 258 258 258 258 258 258 258 258 258 259 260 260 261
274 272 270 270 270 271 272 274 275 275 275 275 274 272 271 269 269 267 265 262 260 259 259 259 259 260 259 259 261 265 267 265 263 262 261 260 260 260 261 261 262 262 262 263 263 264 263 262 261 260 259 259 258 258 258 258 258 257 257 257 258 259
275 274 273 272 271 271 272 273 274 274 273 272 272 272 271 270 269 268 267 265 262 261 260 260 260 260 260 261 263 266 267 265 264 264 263 261 260 259 259 259 260 260 260 259 260 261 262 263 263 263 262 261 260 259 258 258 258 257 256 256 255 256
276 276 275 275 274 273 272 272 273 272 271 270 269 269 269 269 269 268 267 266 265 264 263 262 262 261 262 263 264 265 265 265 264 264 263 261 260 258 258 258 259 259 259 258 258 259 260 261 262 262 262 262 262 260 259 258 257 257 256 255 255 254
276 276 275 274 274 273 273 274 273 273 271 269 268 268 268 268 268 269 269 268 268 267 267 266 265 264 264 264 265 265 265 265 265 263 261 259 258 256 256 257 257 258 258 258 258 258 259 259 260 261 261 261 261 261 260 259 258 257 256 255 254 253
274 274 274 273 272 272 272 272 272 271 270 269 269 270 271 271 271 270 270 271 271 270 270 269 268 267 267 266 267 267 268 267 266 264 261 258 257 256 255 255 255 256 256 257 257 257 257 258 259 259 259 260 260 260 260 259 258 257 256 255 253 252
273 272 272 272 271 271 271 271 271 271 271 270 271 273 275 275 275 275 274 273 273 272 271 270 269 269 268 268 268 268 269 269 269 267 264 261 258 257 257 257 257 256 255 255 255 256 256 256 257 257 257 258 258 258 258 258 257 256 255 254 253 252
271 270 270 270 271 271 272 272 273 274 274 274 274 275 276 276 277 277 276 275 274 273 272 271 270 269 269 268 268 268 268 269 270 269 268 266 262 260 259 259 259 259 258 257 256 256 256 256 256 256 256 256 256 256 256 256 255 255 254 254 253 252
271 271 272 272 273 273 274 274 275 275 276 276 276 276 276 277 277 277 276 276 276 275 274 272 271 271 270 269 269 268 268 268 268 268 268 267 266 264 262 260 259 259 260 259 259 257 256 256 256 256 255 255 254 254 254 254 254 253 252 252 252 251
271 272 273 273 274 274 274 275 275 275 276 276 276 276 276 276 277 277 277 277 276 276 275 274 273 272 271 270 269 268 268 267 267 266 265 264 264 264 263 262 260 259 258 258 259 259 258 257 257 256 256 255 255 254 253 253 252 252 251 250 250 250
271 271 271 272 273 273 274 274 274 274 275 275 275 276 276 276 276 276 276 276 275 275 275 274 273 273 272 271 271 270 269 268 267 266 265 264 262 261 260 260 260 260 258 257 257 258 259 259 258 258 257 256 255 254 253 253 252 251 250 249 249 248
272 272 272 272 272 273 273 273 273 274 274 274 275 275 275 276 276 275 275 275 275 274 274 274 273 273 273 272 272 272 271 270 269 268 267 267 266 264 261 259 258 258 258 258 257 257 259 260 260 260 259 258 257 256 254 253 252 252 251 250 249 248
272 272 272 272 272 272 273 273 273 274 274 274 274 274 275 275 275 275 275 275 274 274 274 274 273 273 273 273 272 272 272 271 271 270 269 268 268 268 267 264 262 259 258 257 257 257 259 260 261 262 261 260 259 258 257 255 253 252 251 250 250 249
273 273 272 273 273 273 273 274 274 274 274 274 274 274 274 274 275 275 274 274 274 274 274 274 273 273 273 273 273 272 272 272 271 271 270 269 268 268 268 267 266 265 262 260 258 257 257 259 262 263 263 261 260 259 258 257 256 254 253 251 250 250
276 275 275 275 275 275 275 275 275 275 275 275 275 275 275 275 275 275 275 275 275 275 275 275 275 274 274 274 274 274 273 272 272 271 270 269 269 268 268 267 267 266 266 264 262 260 258 258 260 262 263 262 261 260 258 257 257 256 255 254 252 251
278 277 277 277 277 277 276 276 276 276 276 276 276 276 276 276 276 276 276 276 276 275 275 275 275 275 275 275 275 275 274 274 273 272 271 270 269 268 268 267 266 266 265 265 265 264 262 261 261 262 262 262 261 260 259 257 256 255 255 255 254 253
277 277 276 276 276 276 276 276 276 276 276 277 277 277 277 277 277 277 277 277 277 277 277 277 276 276 276 276 275 275 275 275 274 274 273 272 270 269 268 267 267 266 265 265 265 265 264 264 264 264 263 262 261 259 258 257 256 255 253 253 254 254
278 278 277 277 277 278 278 278 278 278 278 278 278 279 279 279 279 279 279 279 279 279 279 278 278 277 277 276 276 276 276 275 275 275 274 273 272 270 269 268 267 266 266 265 264 264 264 264 264 264 264 263 262 259 257 256 255 254 253 252 252 252
280 280 280 280 280 280 280 280 280 280 280 280 280 280 280 281 281 280 280 280 280 280 279 279 279 278 277 277 277 277 276 276 275 275 274 274 272 271 270 269 268 267 267 266 265 265 264 264 263 262 262 261 261 260 258 256 254 253 252 252 251 250
283 283 283 283 283 283 283 283 283 283 282 282 282 282 282 282 281 281 281 280 280 280 280 279 279 279 278 278 277 277 277 276 276 275 275 274 273 272 271 270 269 268 267 267 266 266 265 264 263 261 260 259 258 258 258 257 254 252 251 250 250 250
285 285 285 285 285 284 284 284 284 284 284 284 283 283 283 282 282 282 281 281 281 281 281 281 281 281 280 280 279 278 277 277 276 275 275 274 274 273 272 271 270 269 268 267 267 266 265 264 263 261 259 258 256 256 256 256 256 253 251 249 249 249
287 287 286 286 285 285 285 285 285 285 285 285 284 284 284 284 283 283 283 283 283 283 283 283 283 283 282 282 281 279 278 277 277 276 275 274 273 273 272 271 271 270 269 268 267 267 266 265 264 262 260 258 256 255 254 255 255 254 253 250 248 248
287 287 287 286 286 286 286 286 286 287 286 286 286 286 286 286 286 286 285 286 286 286 286 285 285 284 284 283 282 281 280 279 278 277 275 274 273 272 272 271 270 269 269 268 267 267 266 265 265 263 261 258 256 255 254 254 253 253 253 252 249 247
288 288 288 288 288 288 289 289 289 289 289 289 289 289 289 289 289 289 289 289 289 288 288 287 287 286 285 285 284 283 282 281 279 278 277 276 275 273 272 271 270 269 268 267 266 266 265 265 265 264 263 261 258 255 254 253 253 252 252 252 251 249
289 289 289 290 290 291 291 291 291 291 292 292 292 291 291 291 291 291 291 291 291 291 290 289 288 287 286 286 285 284 283 283 281 280 279 278 277 275 273 272 271 269 268 266 265 265 264 263 263 263 262 261 260 257 255 254 253 252 251 251 251 250
291 291 291 291 292 292 293 293 294 294 294 294 293 293 293 293 293 293 293 293 293 292 291 290 290 290 289 288 288 287 287 286 285 283 282 281 279 278 276 274 273 271 270 268 266 265 264 263 262 261 260 260 259 258 257 255 254 253 252 251 250 250
292 292 293 293 293 294 295 295 296 296 296 295 295 294 294 295 295 295 295 295 294 294 293 293 293 292 291 291 291 290 290 289 288 287 286 285 283 282 280 278 276 274 272 270 268 266 264 263 262 261 260 259 258 257 257 255 254 252 252 251 250 248
293 293 294 294 295 296 297 298 298 298 297 297 296 296 297 297 298 297 297 297 296 296 296 295 294 293 293 292 292 291 290 289 288 287 286 285 284 283 282 281 279 277 275 272 270 267 265 263 262 261 260 259 258 257 256 254 253 251 251 251 250 248
293 294 295 296 297 298 299 300 300 299 298 297 297 298 298 299 299 299 299 299 299 299 298 297 296 295 294 294 293 293 292 291 289 288 286 284 283 282 282 281 281 280 278 276 273 270 267 264 263 262 261 260 258 257 255 254 253 251 250 250 250 249
295 296 297 298 299 300 301 301 301 299 298 298 299 300 300 300 300 300 301 301 301 300 298 297 297 297 296 296 296 296 295 294 292 290 287 285 284 282 281 281 281 280 279 278 277 275 272 268 265 263 262 260 258 257 255 254 253 252 250 249 249 248
296 297 298 300 301 302 303 302 301 300 300 301 302 302 302 302 302 303 303 303 302 300 299 299 300 299 299 299 298 297 296 296 294 292 289 286 284 283 282 281 281 280 279 279 279 278 276 274 270 266 263 261 260 258 256 255 253 252 250 249 248 247
296 297 299 302 303 304 304 303 302 302 303 304 304 304 304 304 304 305 306 305 304 303 304 304 304 302 301 300 299 298 297 296 295 293 291 289 286 285 283 282 281 280 279 278 279 278 278 277 274 269 266 263 261 259 258 256 254 252 250 248 247 246
296 298 301 304 305 306 305 304 303 304 305 306 305 305 305 305 306 308 308 307 306 307 308 308 306 305 303 302 302 301 300 299 297 296 295 293 291 289 287 285 283 281 279 279 278 277 277 276 274 271 268 266 263 261 259 257 254 252 250 248 246 245
298 301 304 306 307 307 305 305 306 307 307 307 307 307 308 308 309 310 310 308 309 311 312 311 310 309 308 307 306 306 305 304 302 300 297 295 294 292 291 288 286 284 281 280 279 277 275 274 273 271 269 267 265 263 261 258 255 253 250 248 246 244
300 303 306 308 308 306 306 307 308 309 311 312 312 312 312 312 312 312 311 311 313 316 317 316 314 312 311 311 311 311 310 309 306 303 300 296 294 292 292 291 289 286 283 281 278 277 275 273 272 270 269 268 266 265 263 260 257 254 251 249 247 244
302 305 307 308 307 306 308 309 311 314 318 320 319 319 318 317 316 314 313 314 317 319 320 319 317 315 314 314 316 316 316 313 310 306 303 300 296 294 294 293 292 290 287 283 280 277 275 273 271 270 269 268 266 265 264 261 258 256 253 251 248 246
303 306 308 307 306 306 308 310 314 321 325 327 328 328 327 325 322 318 316 316 318 321 321 320 318 316 316 317 320 321 320 317 314 311 308 306 303 301 299 296 295 293 291 287 283 280 276 274 271 270 268 267 266 265 263 262 260 258 255 251 249 246